{"data":{"norad_id":49725,"epoch":"2026-09-19T19:30:59.588352Z","epoch_age_seconds":104653,"freshness":"FRESH","line1":"1 49725U 21115B   26262.81318968  .00001405  00000+0  52736-4 0  9995","line2":"2 49725  53.1619 345.0676 0001215  80.5873 279.5267 15.34387509265012","mean_motion":15.34387509,"eccentricity":0.0001215,"inclination_deg":53.1619,"raan_deg":345.0676,"arg_perigee_deg":80.5873,"mean_anomaly_deg":279.5267,"bstar":5.2736e-5,"rev_number":26501,"period_min":93.848522068489,"perigee_km":461.90919974331,"apogee_km":463.57153294334,"semimajor_km":6840.8773663433,"source":"CELESTRAK","updated_at":"2026-09-20T09:00:39.403131Z"}}